Location: Warszawa
(52.2500°N, 21.0000°E)
Time: 00:22:02
(UTC+01:00)

Transit 2A Rocket - Visible Passes

Search period start: 21 February 2024 00:00
Search period end: 02 March 2024 00:00
Orbit: 591 x 904 km, 66.7° (Epoch: 20 February)

Date Brightness Start Highest point End Pass type
(mag) Time Alt. Az. Time Alt. Az. Time Alt. Az.
21 Feb 6.3 03:34:48 25° N 03:34:48 25° N 03:37:10 10° NNE visible
21 Feb 6.7 05:14:36 11° NW 05:16:49 15° NNW 05:19:33 10° NNE visible
22 Feb 7.0 02:52:05 19° NNE 02:52:05 19° NNE 02:53:28 10° NNE visible
22 Feb 6.4 04:31:54 17° NNW 04:32:32 18° NNW 04:35:43 10° NNE visible
23 Feb 7.7 02:09:22 12° NE 02:09:22 12° NE 02:09:43 10° NE visible
23 Feb 6.4 03:49:10 21° N 03:49:10 21° N 03:51:58 10° NNE visible
23 Feb 6.9 05:30:07 10° NNW 05:32:31 14° N 05:34:59 10° NNE visible
24 Feb 6.8 03:06:26 20° N 03:06:26 20° N 03:08:16 10° NNE visible
24 Feb 6.8 04:46:14 12° NW 04:48:10 15° N 04:50:49 10° NNE visible
25 Feb 7.4 02:23:40 15° NNE 02:23:40 15° NNE 02:24:34 10° NNE visible
25 Feb 6.6 04:03:28 16° NNW 04:03:53 17° NNW 04:06:53 10° NNE visible
25 Feb 6.9 05:45:31 10° NNW 05:48:13 15° N 05:51:01 10° NE visible
26 Feb 6.7 03:20:42 19° N 03:20:42 19° N 03:23:04 10° NNE visible
26 Feb 7.0 05:01:25 10° NNW 05:03:53 14° N 05:06:27 10° NE visible
27 Feb 7.1 02:37:55 17° NNE 02:37:55 17° NNE 02:39:21 10° NNE visible
27 Feb 6.9 04:17:43 12° NNW 04:19:32 14° N 04:22:08 10° NNE visible
28 Feb 7.6 01:55:07 13° NNE 01:55:07 13° NNE 01:55:38 10° NNE visible
28 Feb 6.8 03:34:55 15° NNW 03:35:13 16° NNW 03:38:04 10° NNE visible
28 Feb 7.0 05:16:39 10° NNW 05:19:35 16° NNE 05:22:38 10° NE visible
29 Feb 7.0 02:52:06 17° N 02:52:06 17° N 02:54:12 10° NNE visible
29 Feb 7.1 04:32:39 10° NNW 04:35:16 15° N 04:37:58 10° NE visible
01 Mar 7.4 02:09:17 15° NNE 02:09:17 15° NNE 02:10:26 10° NNE visible
01 Mar 7.0 03:49:05 12° NNW 03:50:55 14° N 03:53:30 10° NNE visible
01 Mar 6.9 05:31:30 10° NNW 05:35:09 21° NNE 05:39:00 10° ENE visible
